Location: Dreilärchen
(47.9312°N, 8.6113°E)
Time: 21:10:15
(UTC+00:00)

Cosmos 1703 - Pass Details

Date: 26 May 2022
Orbit: 518 x 535 km, 82.5° (Epoch: 03 July)

Event Time Altitude Azimuth Distance (km) Brightness Sun altitude
Exits shadow 01:37:01 14° 162° (SSE) 1,557 5.3 -14.7°
Maximum altitude 01:40:09 43° 94° (E) 759 4.2 -14.4°
Drops below altitude 10° 01:43:54 10° 22° (NNE) 1,797 7.3 -14.0°
Sets 01:46:07 0° 16° (NNE) 2,690 8.3 -13.8°
